Year,Month,Day,Hour,Minute,Value (Times are PST for temperature in C)
2016,10,11,00,00,4.90
2016,10,11,00,01,4.90
2016,10,11,00,02,4.90
2016,10,11,00,03,4.90
2016,10,11,00,04,4.90
2016,10,11,00,05,4.90
2016,10,11,00,06,4.90
2016,10,11,00,07,4.90
2016,10,11,00,08,4.80
2016,10,11,00,09,4.80
2016,10,11,00,10,4.80
2016,10,11,00,11,4.80
2016,10,11,00,12,4.80
2016,10,11,00,13,4.80
2016,10,11,00,14,4.80
2016,10,11,00,15,4.80
2016,10,11,00,16,4.80
2016,10,11,00,17,4.80
2016,10,11,00,18,4.80
2016,10,11,00,19,4.80
2016,10,11,00,20,4.80
2016,10,11,00,21,4.80
2016,10,11,00,22,4.80
2016,10,11,00,23,4.80
2016,10,11,00,24,4.80
2016,10,11,00,25,4.80
2016,10,11,00,26,4.80
2016,10,11,00,27,4.80
2016,10,11,00,28,4.80
2016,10,11,00,29,4.80
2016,10,11,00,30,4.70
2016,10,11,00,31,4.70
2016,10,11,00,32,4.70
2016,10,11,00,33,4.80
2016,10,11,00,34,4.80
2016,10,11,00,35,4.70
2016,10,11,00,36,4.70
2016,10,11,00,37,4.70
2016,10,11,00,38,4.70
2016,10,11,00,39,4.70
2016,10,11,00,40,4.80
2016,10,11,00,41,4.80
2016,10,11,00,42,4.80
2016,10,11,00,43,4.80
2016,10,11,00,44,4.80
2016,10,11,00,45,4.80
2016,10,11,00,46,4.80
2016,10,11,00,47,4.80
2016,10,11,00,48,4.90
2016,10,11,00,49,4.90
2016,10,11,00,50,4.90
2016,10,11,00,51,4.90
2016,10,11,00,52,5.00
2016,10,11,00,53,5.10
2016,10,11,00,54,5.10
2016,10,11,00,55,5.10
2016,10,11,00,56,5.10
2016,10,11,00,57,5.10
2016,10,11,00,58,5.10
2016,10,11,00,59,5.20
2016,10,11,01,00,5.20
2016,10,11,01,01,5.20
2016,10,11,01,02,5.30
2016,10,11,01,03,5.30
2016,10,11,01,04,5.30
2016,10,11,01,05,5.30
2016,10,11,01,06,5.30
2016,10,11,01,07,5.30
2016,10,11,01,08,5.20
2016,10,11,01,09,5.20
2016,10,11,01,10,5.20
2016,10,11,01,11,5.20
2016,10,11,01,12,5.20
2016,10,11,01,13,5.20
2016,10,11,01,14,5.20
2016,10,11,01,15,5.20
2016,10,11,01,16,5.20
2016,10,11,01,17,5.20
2016,10,11,01,18,5.20
2016,10,11,01,19,5.20
2016,10,11,01,20,5.20
2016,10,11,01,21,5.20
2016,10,11,01,22,5.20
2016,10,11,01,23,5.20
2016,10,11,01,24,5.10
2016,10,11,01,25,5.10
2016,10,11,01,26,5.10
2016,10,11,01,27,5.10
2016,10,11,01,28,5.10
2016,10,11,01,29,5.10
2016,10,11,01,30,5.10
2016,10,11,01,31,5.10
2016,10,11,01,32,5.10
2016,10,11,01,33,5.10
2016,10,11,01,34,5.10
2016,10,11,01,35,5.10
2016,10,11,01,36,5.10
2016,10,11,01,37,5.10
2016,10,11,01,38,5.10
2016,10,11,01,39,5.10
2016,10,11,01,40,5.10
2016,10,11,01,41,5.10
2016,10,11,01,42,5.10
2016,10,11,01,43,5.10
2016,10,11,01,44,5.10
2016,10,11,01,45,5.10
2016,10,11,01,46,5.10
2016,10,11,01,47,5.10
2016,10,11,01,48,5.10
2016,10,11,01,49,5.10
2016,10,11,01,50,5.00
2016,10,11,01,51,5.00
2016,10,11,01,52,5.00
2016,10,11,01,53,5.00
2016,10,11,01,54,5.00
2016,10,11,01,55,5.00
2016,10,11,01,56,4.90
2016,10,11,01,57,4.90
2016,10,11,01,58,4.90
2016,10,11,01,59,4.90
2016,10,11,02,00,4.90
2016,10,11,02,01,5.00
2016,10,11,02,02,5.00
2016,10,11,02,03,5.00
2016,10,11,02,04,5.00
2016,10,11,02,05,5.00
2016,10,11,02,06,5.00
2016,10,11,02,07,5.00
2016,10,11,02,08,5.00
2016,10,11,02,09,5.00
2016,10,11,02,10,5.00
2016,10,11,02,11,5.00
2016,10,11,02,12,5.00
2016,10,11,02,13,5.00
2016,10,11,02,14,5.10
2016,10,11,02,15,5.10
2016,10,11,02,16,5.10
2016,10,11,02,17,5.10
2016,10,11,02,18,5.10
2016,10,11,02,19,5.10
2016,10,11,02,20,5.10
2016,10,11,02,21,5.10
2016,10,11,02,22,5.10
2016,10,11,02,23,5.10
2016,10,11,02,24,5.10
2016,10,11,02,25,5.10
2016,10,11,02,26,5.10
2016,10,11,02,27,5.10
2016,10,11,02,28,5.10
2016,10,11,02,29,5.10
2016,10,11,02,30,5.10
2016,10,11,02,31,5.10
2016,10,11,02,32,5.10
2016,10,11,02,33,5.10
2016,10,11,02,34,5.10
2016,10,11,02,35,5.10
2016,10,11,02,36,5.10
2016,10,11,02,37,5.10
2016,10,11,02,38,5.00
2016,10,11,02,39,5.00
2016,10,11,02,40,5.00
2016,10,11,02,41,4.90
2016,10,11,02,42,4.90
2016,10,11,02,43,4.90
2016,10,11,02,44,4.80
2016,10,11,02,45,4.80
2016,10,11,02,46,4.80
2016,10,11,02,47,4.80
2016,10,11,02,48,4.80
2016,10,11,02,49,4.80
2016,10,11,02,50,4.80
2016,10,11,02,51,4.70
2016,10,11,02,52,4.70
2016,10,11,02,53,4.70
2016,10,11,02,54,4.70
2016,10,11,02,55,4.70
2016,10,11,02,56,4.70
2016,10,11,02,57,4.70
2016,10,11,02,58,4.70
2016,10,11,02,59,4.70
2016,10,11,03,00,4.70
2016,10,11,03,01,4.70
2016,10,11,03,02,4.70
2016,10,11,03,03,4.70
2016,10,11,03,04,4.60
2016,10,11,03,05,4.60
2016,10,11,03,06,4.60
2016,10,11,03,07,4.60
2016,10,11,03,08,4.60
2016,10,11,03,09,4.60
2016,10,11,03,10,4.50
2016,10,11,03,11,4.50
2016,10,11,03,12,4.40
2016,10,11,03,13,4.40
2016,10,11,03,14,4.30
2016,10,11,03,15,4.30
2016,10,11,03,16,4.20
2016,10,11,03,17,4.20
2016,10,11,03,18,4.10
2016,10,11,03,19,4.10
2016,10,11,03,20,4.00
2016,10,11,03,21,4.00
2016,10,11,03,22,3.90
2016,10,11,03,23,3.90
2016,10,11,03,24,3.80
2016,10,11,03,25,3.70
2016,10,11,03,26,3.70
2016,10,11,03,27,3.60
2016,10,11,03,28,3.60
2016,10,11,03,29,3.60
2016,10,11,03,30,3.50
2016,10,11,03,31,3.50
2016,10,11,03,32,3.50
2016,10,11,03,33,3.40
2016,10,11,03,34,3.40
2016,10,11,03,35,3.40
2016,10,11,03,36,3.40
2016,10,11,03,37,3.40
2016,10,11,03,38,3.40
2016,10,11,03,39,3.40
2016,10,11,03,40,3.40
2016,10,11,03,41,3.40
2016,10,11,03,42,3.30
2016,10,11,03,43,3.30
2016,10,11,03,44,3.30
2016,10,11,03,45,3.30
2016,10,11,03,46,3.30
2016,10,11,03,47,3.30
2016,10,11,03,48,3.30
2016,10,11,03,49,3.40
2016,10,11,03,50,3.40
2016,10,11,03,51,3.40
2016,10,11,03,52,3.40
2016,10,11,03,53,3.40
2016,10,11,03,54,3.50
2016,10,11,03,55,3.50
2016,10,11,03,56,3.50
2016,10,11,03,57,3.50
2016,10,11,03,58,3.60
2016,10,11,03,59,3.60
2016,10,11,04,00,3.60
2016,10,11,04,01,3.70
2016,10,11,04,02,3.70
2016,10,11,04,03,3.70
2016,10,11,04,04,3.70
2016,10,11,04,05,3.80
2016,10,11,04,06,3.80
2016,10,11,04,07,3.80
2016,10,11,04,08,3.80
2016,10,11,04,09,3.80
2016,10,11,04,10,3.80
2016,10,11,04,11,3.80
2016,10,11,04,12,3.80
2016,10,11,04,13,3.80
2016,10,11,04,14,3.80
2016,10,11,04,15,3.80
2016,10,11,04,16,3.80
2016,10,11,04,17,3.80
2016,10,11,04,18,3.70
2016,10,11,04,19,3.70
2016,10,11,04,20,3.60
2016,10,11,04,21,3.50
2016,10,11,04,22,3.50
2016,10,11,04,23,3.40
2016,10,11,04,24,3.40
2016,10,11,04,25,3.30
2016,10,11,04,26,3.30
2016,10,11,04,27,3.30
2016,10,11,04,28,3.30
2016,10,11,04,29,3.30
2016,10,11,04,30,3.30
2016,10,11,04,31,3.30
2016,10,11,04,32,3.20
2016,10,11,04,33,3.20
2016,10,11,04,34,3.20
2016,10,11,04,35,3.20
2016,10,11,04,36,3.20
2016,10,11,04,37,3.30
2016,10,11,04,38,3.20
2016,10,11,04,39,3.20
2016,10,11,04,40,3.20
2016,10,11,04,41,3.20
2016,10,11,04,42,3.20
2016,10,11,04,43,3.20
2016,10,11,04,44,3.20
2016,10,11,04,45,3.20
2016,10,11,04,46,3.20
2016,10,11,04,47,3.30
2016,10,11,04,48,3.30
2016,10,11,04,49,3.30
2016,10,11,04,50,3.30
2016,10,11,04,51,3.40
2016,10,11,04,52,3.40
2016,10,11,04,53,3.50
2016,10,11,04,54,3.50
2016,10,11,04,55,3.60
2016,10,11,04,56,3.60
2016,10,11,04,57,3.60
2016,10,11,04,58,3.60
2016,10,11,04,59,3.60
2016,10,11,05,00,3.50
2016,10,11,05,01,3.50
2016,10,11,05,02,3.50
2016,10,11,05,03,3.40
2016,10,11,05,04,3.40
2016,10,11,05,05,3.50
2016,10,11,05,06,3.50
2016,10,11,05,07,3.60
2016,10,11,05,08,3.60
2016,10,11,05,09,3.60
2016,10,11,05,10,3.60
2016,10,11,05,11,3.60
2016,10,11,05,12,3.60
2016,10,11,05,13,3.60
2016,10,11,05,14,3.60
2016,10,11,05,15,3.60
2016,10,11,05,16,3.60
2016,10,11,05,17,3.60
2016,10,11,05,18,3.60
2016,10,11,05,19,3.60
2016,10,11,05,20,3.60
2016,10,11,05,21,3.60
2016,10,11,05,22,3.60
2016,10,11,05,23,3.70
2016,10,11,05,24,3.70
2016,10,11,05,25,3.70
2016,10,11,05,26,3.70
2016,10,11,05,27,3.70
2016,10,11,05,28,3.70
2016,10,11,05,29,3.70
2016,10,11,05,30,3.70
2016,10,11,05,31,3.70
2016,10,11,05,32,3.70
2016,10,11,05,33,3.60
2016,10,11,05,34,3.60
2016,10,11,05,35,3.60
2016,10,11,05,36,3.70
2016,10,11,05,37,3.70
2016,10,11,05,38,3.70
2016,10,11,05,39,3.70
2016,10,11,05,40,3.70
2016,10,11,05,41,3.80
2016,10,11,05,42,3.80
2016,10,11,05,43,3.70
2016,10,11,05,44,3.70
2016,10,11,05,45,3.70
2016,10,11,05,46,3.70
2016,10,11,05,47,3.70
2016,10,11,05,48,3.70
2016,10,11,05,49,3.70
2016,10,11,05,50,3.80
2016,10,11,05,51,3.90
2016,10,11,05,52,3.90
2016,10,11,05,53,4.00
2016,10,11,05,54,4.00
2016,10,11,05,55,4.00
2016,10,11,05,56,4.00
2016,10,11,05,57,4.00
2016,10,11,05,58,4.00
2016,10,11,05,59,4.00
2016,10,11,06,00,3.90
2016,10,11,06,01,3.90
2016,10,11,06,02,3.80
2016,10,11,06,03,3.70
2016,10,11,06,04,3.70
2016,10,11,06,05,3.70
2016,10,11,06,06,3.60
2016,10,11,06,07,3.60
2016,10,11,06,08,3.50
2016,10,11,06,09,3.40
2016,10,11,06,10,3.40
2016,10,11,06,11,3.30
2016,10,11,06,12,3.30
2016,10,11,06,13,3.30
2016,10,11,06,14,3.30
2016,10,11,06,15,3.30
2016,10,11,06,16,3.30
2016,10,11,06,17,3.30
2016,10,11,06,18,3.30
2016,10,11,06,19,3.30
2016,10,11,06,20,3.30
2016,10,11,06,21,3.40
2016,10,11,06,22,3.40
2016,10,11,06,23,3.40
2016,10,11,06,24,3.40
2016,10,11,06,25,3.40
2016,10,11,06,26,3.40
2016,10,11,06,27,3.40
2016,10,11,06,28,3.40
2016,10,11,06,29,3.40
2016,10,11,06,30,3.40
2016,10,11,06,31,3.40
2016,10,11,06,32,3.50
2016,10,11,06,33,3.50
2016,10,11,06,34,3.50
2016,10,11,06,35,3.50
2016,10,11,06,36,3.50
2016,10,11,06,37,3.50
2016,10,11,06,38,3.50
2016,10,11,06,39,3.50
2016,10,11,06,40,3.50
2016,10,11,06,41,3.60
2016,10,11,06,42,3.60
2016,10,11,06,43,3.60
2016,10,11,06,44,3.60
2016,10,11,06,45,3.50
2016,10,11,06,46,3.50
2016,10,11,06,47,3.50
2016,10,11,06,48,3.50
2016,10,11,06,49,3.60
2016,10,11,06,50,3.60
2016,10,11,06,51,3.60
2016,10,11,06,52,3.60
2016,10,11,06,53,3.50
2016,10,11,06,54,3.40
2016,10,11,06,55,3.40
2016,10,11,06,56,3.30
2016,10,11,06,57,3.30
2016,10,11,06,58,3.20
2016,10,11,06,59,3.20
2016,10,11,07,00,3.20
2016,10,11,07,01,3.20
2016,10,11,07,02,3.30
2016,10,11,07,03,3.40
2016,10,11,07,04,3.50
2016,10,11,07,05,3.60
2016,10,11,07,06,3.70
2016,10,11,07,07,3.70
2016,10,11,07,08,3.70
2016,10,11,07,09,3.80
2016,10,11,07,10,3.80
2016,10,11,07,11,3.90
2016,10,11,07,12,3.90
2016,10,11,07,13,3.90
2016,10,11,07,14,3.90
2016,10,11,07,15,3.80
2016,10,11,07,16,3.80
2016,10,11,07,17,3.80
2016,10,11,07,18,3.80
2016,10,11,07,19,3.80
2016,10,11,07,20,3.80
2016,10,11,07,21,3.80
2016,10,11,07,22,3.80
2016,10,11,07,23,3.70
2016,10,11,07,24,3.70
2016,10,11,07,25,3.60
2016,10,11,07,26,3.50
2016,10,11,07,27,3.50
2016,10,11,07,28,3.50
2016,10,11,07,29,3.50
2016,10,11,07,30,3.60
2016,10,11,07,31,3.50
2016,10,11,07,32,3.50
2016,10,11,07,33,3.50
2016,10,11,07,34,3.40
2016,10,11,07,35,3.40
2016,10,11,07,36,3.40
2016,10,11,07,37,3.40
2016,10,11,07,38,3.40
2016,10,11,07,39,3.40
2016,10,11,07,40,3.40
2016,10,11,07,41,3.40
2016,10,11,07,42,3.40
2016,10,11,07,43,3.40
2016,10,11,07,44,3.40
2016,10,11,07,45,3.40
2016,10,11,07,46,3.40
2016,10,11,07,47,3.40
2016,10,11,07,48,3.40
2016,10,11,07,49,3.50
2016,10,11,07,50,3.50
2016,10,11,07,51,3.60
2016,10,11,07,52,3.60
2016,10,11,07,53,3.60
2016,10,11,07,54,3.70
2016,10,11,07,55,3.70
2016,10,11,07,56,3.80
2016,10,11,07,57,3.80
2016,10,11,07,58,3.90
2016,10,11,07,59,3.90
2016,10,11,08,00,3.90
2016,10,11,08,01,3.90
2016,10,11,08,02,3.90
2016,10,11,08,03,3.90
2016,10,11,08,04,3.90
2016,10,11,08,05,3.90
2016,10,11,08,06,3.90
2016,10,11,08,07,3.90
2016,10,11,08,08,3.90
2016,10,11,08,09,4.00
2016,10,11,08,10,4.00
2016,10,11,08,11,4.00
2016,10,11,08,12,4.00
2016,10,11,08,13,4.10
2016,10,11,08,14,4.10
2016,10,11,08,15,4.10
2016,10,11,08,16,4.10
2016,10,11,08,17,4.10
2016,10,11,08,18,4.10
2016,10,11,08,19,4.10
2016,10,11,08,20,4.20
2016,10,11,08,21,4.20
2016,10,11,08,22,4.20
2016,10,11,08,23,4.20
2016,10,11,08,24,4.20
2016,10,11,08,25,4.20
2016,10,11,08,26,4.30
2016,10,11,08,27,4.30
2016,10,11,08,28,4.30
2016,10,11,08,29,4.30
2016,10,11,08,30,4.40
2016,10,11,08,31,4.40
2016,10,11,08,32,4.40
2016,10,11,08,33,4.40
2016,10,11,08,34,4.50
2016,10,11,08,35,4.50
2016,10,11,08,36,4.50
2016,10,11,08,37,4.50
2016,10,11,08,38,4.50
2016,10,11,08,39,4.60
2016,10,11,08,40,4.60
2016,10,11,08,41,4.70
2016,10,11,08,42,4.70
2016,10,11,08,43,4.70
2016,10,11,08,44,4.80
2016,10,11,08,45,4.80
2016,10,11,08,46,4.80
2016,10,11,08,47,4.90
2016,10,11,08,48,4.90
2016,10,11,08,49,5.00
2016,10,11,08,50,5.00
2016,10,11,08,51,5.10
2016,10,11,08,52,5.10
2016,10,11,08,53,5.20
2016,10,11,08,54,5.20
2016,10,11,08,55,5.20
2016,10,11,08,56,5.30
2016,10,11,08,57,5.30
2016,10,11,08,58,5.30
2016,10,11,08,59,5.40
2016,10,11,09,00,5.40
2016,10,11,09,01,5.50
2016,10,11,09,02,5.50
2016,10,11,09,03,5.60
2016,10,11,09,04,5.60
2016,10,11,09,05,5.70
2016,10,11,09,06,5.80
2016,10,11,09,07,5.80
2016,10,11,09,08,5.90
2016,10,11,09,09,6.00
2016,10,11,09,10,6.00
2016,10,11,09,11,6.10
2016,10,11,09,12,6.10
2016,10,11,09,13,6.20
2016,10,11,09,14,6.30
2016,10,11,09,15,6.30
2016,10,11,09,16,6.30
2016,10,11,09,17,6.40
2016,10,11,09,18,6.40
2016,10,11,09,19,6.50
2016,10,11,09,20,6.50
2016,10,11,09,21,6.60
2016,10,11,09,22,6.60
2016,10,11,09,23,6.70
2016,10,11,09,24,6.70
2016,10,11,09,25,6.80
2016,10,11,09,26,6.90
2016,10,11,09,27,6.90
2016,10,11,09,28,7.00
2016,10,11,09,29,7.00
2016,10,11,09,30,7.10
2016,10,11,09,31,7.10
2016,10,11,09,32,7.20
2016,10,11,09,33,7.30
2016,10,11,09,34,7.30
2016,10,11,09,35,7.40
2016,10,11,09,36,7.40
2016,10,11,09,37,7.50
2016,10,11,09,38,7.60
2016,10,11,09,39,7.60
2016,10,11,09,40,7.70
2016,10,11,09,41,7.70
2016,10,11,09,42,7.80
2016,10,11,09,43,7.80
2016,10,11,09,44,7.90
2016,10,11,09,45,7.90
2016,10,11,09,46,8.00
2016,10,11,09,47,8.00
2016,10,11,09,48,8.10
2016,10,11,09,49,8.10
2016,10,11,09,50,8.20
2016,10,11,09,51,8.20
2016,10,11,09,52,8.30
2016,10,11,09,53,8.30
2016,10,11,09,54,8.40
2016,10,11,09,55,8.40
2016,10,11,09,56,8.40
2016,10,11,09,57,8.50
2016,10,11,09,58,8.60
2016,10,11,09,59,8.70
2016,10,11,10,00,8.80
2016,10,11,10,01,8.90
2016,10,11,10,02,9.00
2016,10,11,10,03,9.10
2016,10,11,10,04,9.20
2016,10,11,10,05,9.30
2016,10,11,10,06,9.40
2016,10,11,10,07,9.50
2016,10,11,10,08,9.60
2016,10,11,10,09,9.70
2016,10,11,10,10,9.80
2016,10,11,10,11,9.80
2016,10,11,10,12,9.80
2016,10,11,10,13,9.80
2016,10,11,10,14,9.80
2016,10,11,10,15,9.80
2016,10,11,10,16,9.80
2016,10,11,10,17,9.80
2016,10,11,10,18,9.90
2016,10,11,10,19,9.90
2016,10,11,10,20,10.00
2016,10,11,10,21,10.00
2016,10,11,10,22,10.10
2016,10,11,10,23,10.10
2016,10,11,10,24,10.10
2016,10,11,10,25,10.10
2016,10,11,10,26,10.10
2016,10,11,10,27,10.10
2016,10,11,10,28,10.10
2016,10,11,10,29,10.10
2016,10,11,10,30,10.20
2016,10,11,10,31,10.20
2016,10,11,10,32,10.20
2016,10,11,10,33,10.20
2016,10,11,10,34,10.20
2016,10,11,10,35,10.20
2016,10,11,10,36,10.20
2016,10,11,10,37,10.20
2016,10,11,10,38,10.20
2016,10,11,10,39,10.20
2016,10,11,10,40,10.20
2016,10,11,10,41,10.20
2016,10,11,10,42,10.20
2016,10,11,10,43,10.20
2016,10,11,10,44,10.20
2016,10,11,10,45,10.20
2016,10,11,10,46,10.30
2016,10,11,10,47,10.40
2016,10,11,10,48,10.40
2016,10,11,10,49,10.40
2016,10,11,10,50,10.40
2016,10,11,10,51,10.40
2016,10,11,10,52,10.30
2016,10,11,10,53,10.30
2016,10,11,10,54,10.30
2016,10,11,10,55,10.30
2016,10,11,10,56,10.40
2016,10,11,10,57,10.40
2016,10,11,10,58,10.40
2016,10,11,10,59,10.30
2016,10,11,11,00,10.30
2016,10,11,11,01,10.20
2016,10,11,11,02,10.20
2016,10,11,11,03,10.10
2016,10,11,11,04,10.10
2016,10,11,11,05,10.20
2016,10,11,11,06,10.10
2016,10,11,11,07,10.10
2016,10,11,11,08,10.10
2016,10,11,11,09,10.00
2016,10,11,11,10,10.00
2016,10,11,11,11,9.90
2016,10,11,11,12,9.80
2016,10,11,11,13,9.80
2016,10,11,11,14,9.70
2016,10,11,11,15,9.70
2016,10,11,11,16,9.70
2016,10,11,11,17,9.80
2016,10,11,11,18,9.80
2016,10,11,11,19,9.90
2016,10,11,11,20,9.90
2016,10,11,11,21,9.90
2016,10,11,11,22,9.90
2016,10,11,11,23,10.00
2016,10,11,11,24,10.00
2016,10,11,11,25,10.00
2016,10,11,11,26,10.10
2016,10,11,11,27,10.10
2016,10,11,11,28,10.20
2016,10,11,11,29,10.20
2016,10,11,11,30,10.20
2016,10,11,11,31,10.30
2016,10,11,11,32,10.30
2016,10,11,11,33,10.30
2016,10,11,11,34,10.30
2016,10,11,11,35,10.30
2016,10,11,11,36,10.30
2016,10,11,11,37,10.30
2016,10,11,11,38,10.30
2016,10,11,11,39,10.30
2016,10,11,11,40,10.30
2016,10,11,11,41,10.30
2016,10,11,11,42,10.30
2016,10,11,11,43,10.30
2016,10,11,11,44,10.30
2016,10,11,11,45,10.30
2016,10,11,11,46,10.30
2016,10,11,11,47,10.30
2016,10,11,11,48,10.30
2016,10,11,11,49,10.30
2016,10,11,11,50,10.30
2016,10,11,11,51,10.30
2016,10,11,11,52,10.30
2016,10,11,11,53,10.30
2016,10,11,11,54,10.30
2016,10,11,11,55,10.30
2016,10,11,11,56,10.20
2016,10,11,11,57,10.20
2016,10,11,11,58,10.20
2016,10,11,11,59,10.20
2016,10,11,12,00,10.10
2016,10,11,12,01,10.10
2016,10,11,12,02,10.10
2016,10,11,12,03,10.10
2016,10,11,12,04,10.20
2016,10,11,12,05,10.20
2016,10,11,12,06,10.20
2016,10,11,12,07,10.20
2016,10,11,12,08,10.20
2016,10,11,12,09,10.20
2016,10,11,12,10,10.20
2016,10,11,12,11,10.20
2016,10,11,12,12,10.20
2016,10,11,12,13,10.20
2016,10,11,12,14,10.10
2016,10,11,12,15,10.10
2016,10,11,12,16,10.10
2016,10,11,12,17,10.20
2016,10,11,12,18,10.20
2016,10,11,12,19,10.20
2016,10,11,12,20,10.20
2016,10,11,12,21,10.20
2016,10,11,12,22,10.20
2016,10,11,12,23,10.20
2016,10,11,12,24,10.20
2016,10,11,12,25,10.10
2016,10,11,12,26,10.00
2016,10,11,12,27,10.00
2016,10,11,12,28,9.90
2016,10,11,12,29,9.90
2016,10,11,12,30,9.90
2016,10,11,12,31,9.90
2016,10,11,12,32,9.90
2016,10,11,12,33,9.90
2016,10,11,12,34,9.90
2016,10,11,12,35,10.00
2016,10,11,12,36,10.10
2016,10,11,12,37,10.20
2016,10,11,12,38,10.20
2016,10,11,12,39,10.20
2016,10,11,12,40,10.30
2016,10,11,12,41,10.30
2016,10,11,12,42,10.40
2016,10,11,12,43,10.40
2016,10,11,12,44,10.40
2016,10,11,12,45,10.50
2016,10,11,12,46,10.50
2016,10,11,12,47,10.60
2016,10,11,12,48,10.60
2016,10,11,12,49,10.70
2016,10,11,12,50,10.70
2016,10,11,12,51,10.70
2016,10,11,12,52,10.70
2016,10,11,12,53,10.80
2016,10,11,12,54,10.90
2016,10,11,12,55,10.90
2016,10,11,12,56,11.00
2016,10,11,12,57,11.00
2016,10,11,12,58,11.10
2016,10,11,12,59,11.10
2016,10,11,13,00,11.10
2016,10,11,13,01,11.10
2016,10,11,13,02,11.20
2016,10,11,13,03,11.20
2016,10,11,13,04,11.10
2016,10,11,13,05,11.10
2016,10,11,13,06,11.20
2016,10,11,13,07,11.20
2016,10,11,13,08,11.20
2016,10,11,13,09,11.30
2016,10,11,13,10,11.30
2016,10,11,13,11,11.30
2016,10,11,13,12,11.30
2016,10,11,13,13,11.40
2016,10,11,13,14,11.40
2016,10,11,13,15,11.40
2016,10,11,13,16,11.40
2016,10,11,13,17,11.40
2016,10,11,13,18,11.30
2016,10,11,13,19,11.30
2016,10,11,13,20,11.30
2016,10,11,13,21,11.20
2016,10,11,13,22,11.20
2016,10,11,13,23,11.30
2016,10,11,13,24,11.30
2016,10,11,13,25,11.40
2016,10,11,13,26,11.50
2016,10,11,13,27,11.60
2016,10,11,13,28,11.70
2016,10,11,13,29,11.90
2016,10,11,13,30,11.90
2016,10,11,13,31,12.00
2016,10,11,13,32,12.10
2016,10,11,13,33,12.10
2016,10,11,13,34,12.00
2016,10,11,13,35,11.90
2016,10,11,13,36,11.80
2016,10,11,13,37,11.70
2016,10,11,13,38,11.60
2016,10,11,13,39,11.60
2016,10,11,13,40,11.60
2016,10,11,13,41,11.70
2016,10,11,13,42,11.80
2016,10,11,13,43,11.80
2016,10,11,13,44,11.90
2016,10,11,13,45,11.90
2016,10,11,13,46,11.90
2016,10,11,13,47,11.90
2016,10,11,13,48,11.90
2016,10,11,13,49,11.90
2016,10,11,13,50,11.90
2016,10,11,13,51,11.80
2016,10,11,13,52,11.80
2016,10,11,13,53,11.90
2016,10,11,13,54,12.00
2016,10,11,13,55,12.10
2016,10,11,13,56,12.20
2016,10,11,13,57,12.20
2016,10,11,13,58,12.20
2016,10,11,13,59,12.20
2016,10,11,14,00,12.20
2016,10,11,14,01,12.20
2016,10,11,14,02,12.20
2016,10,11,14,03,12.30
2016,10,11,14,04,12.40
2016,10,11,14,05,12.40
2016,10,11,14,06,12.50
2016,10,11,14,07,12.50
2016,10,11,14,08,12.60
2016,10,11,14,09,12.60
2016,10,11,14,10,12.70
2016,10,11,14,11,12.70
2016,10,11,14,12,12.70
2016,10,11,14,13,12.70
2016,10,11,14,14,12.80
2016,10,11,14,15,12.70
2016,10,11,14,16,12.80
2016,10,11,14,17,12.70
2016,10,11,14,18,12.70
2016,10,11,14,19,12.70
2016,10,11,14,20,12.70
2016,10,11,14,21,12.60
2016,10,11,14,22,12.50
2016,10,11,14,23,12.40
2016,10,11,14,24,12.30
2016,10,11,14,25,12.30
2016,10,11,14,26,12.30
2016,10,11,14,27,12.30
2016,10,11,14,28,12.30
2016,10,11,14,29,12.20
2016,10,11,14,30,12.10
2016,10,11,14,31,12.10
2016,10,11,14,32,12.10
2016,10,11,14,33,12.00
2016,10,11,14,34,12.00
2016,10,11,14,35,12.00
2016,10,11,14,36,12.00
2016,10,11,14,37,12.00
2016,10,11,14,38,11.90
2016,10,11,14,39,12.00
2016,10,11,14,40,12.00
2016,10,11,14,41,12.10
2016,10,11,14,42,12.20
2016,10,11,14,43,12.30
2016,10,11,14,44,12.30
2016,10,11,14,45,12.20
2016,10,11,14,46,12.20
2016,10,11,14,47,12.10
2016,10,11,14,48,12.10
2016,10,11,14,49,12.10
2016,10,11,14,50,12.10
2016,10,11,14,51,12.10
2016,10,11,14,52,12.10
2016,10,11,14,53,12.10
2016,10,11,14,54,12.10
2016,10,11,14,55,12.10
2016,10,11,14,56,12.20
2016,10,11,14,57,12.20
2016,10,11,14,58,12.30
2016,10,11,14,59,12.40
2016,10,11,15,00,12.50
2016,10,11,15,01,12.50
2016,10,11,15,02,12.50
2016,10,11,15,03,12.60
2016,10,11,15,04,12.60
2016,10,11,15,05,12.70
2016,10,11,15,06,12.70
2016,10,11,15,07,12.60
2016,10,11,15,08,12.60
2016,10,11,15,09,12.60
2016,10,11,15,10,12.70
2016,10,11,15,11,12.80
2016,10,11,15,12,12.80
2016,10,11,15,13,12.90
2016,10,11,15,14,12.90
2016,10,11,15,15,12.90
2016,10,11,15,16,12.90
2016,10,11,15,17,12.80
2016,10,11,15,18,12.80
2016,10,11,15,19,12.80
2016,10,11,15,20,12.80
2016,10,11,15,21,12.80
2016,10,11,15,22,12.80
2016,10,11,15,23,12.90
2016,10,11,15,24,12.90
2016,10,11,15,25,13.00
2016,10,11,15,26,13.10
2016,10,11,15,27,13.20
2016,10,11,15,28,13.20
2016,10,11,15,29,13.30
2016,10,11,15,30,13.30
2016,10,11,15,31,13.30
2016,10,11,15,32,13.30
2016,10,11,15,33,13.20
2016,10,11,15,34,13.20
2016,10,11,15,35,13.20
2016,10,11,15,36,13.20
2016,10,11,15,37,13.10
2016,10,11,15,38,13.10
2016,10,11,15,39,13.00
2016,10,11,15,40,13.00
2016,10,11,15,41,13.00
2016,10,11,15,42,13.00
2016,10,11,15,43,13.00
2016,10,11,15,44,13.00
2016,10,11,15,45,13.00
2016,10,11,15,46,13.00
2016,10,11,15,47,12.90
2016,10,11,15,48,12.90
2016,10,11,15,49,12.90
2016,10,11,15,50,13.00
2016,10,11,15,51,13.00
2016,10,11,15,52,13.00
2016,10,11,15,53,13.00
2016,10,11,15,54,13.10
2016,10,11,15,55,13.10
2016,10,11,15,56,13.10
2016,10,11,15,57,13.20
2016,10,11,15,58,13.20
2016,10,11,15,59,13.20
2016,10,11,16,00,13.20
2016,10,11,16,01,13.30
2016,10,11,16,02,13.30
2016,10,11,16,03,13.30
2016,10,11,16,04,13.30
2016,10,11,16,05,13.30
2016,10,11,16,06,13.40
2016,10,11,16,07,13.40
2016,10,11,16,08,13.40
2016,10,11,16,09,13.40
2016,10,11,16,10,13.40
2016,10,11,16,11,13.40
2016,10,11,16,12,13.40
2016,10,11,16,13,13.40
2016,10,11,16,14,13.40
2016,10,11,16,15,13.40
2016,10,11,16,16,13.30
2016,10,11,16,17,13.30
2016,10,11,16,18,13.30
2016,10,11,16,19,13.30
2016,10,11,16,20,13.30
2016,10,11,16,21,13.30
2016,10,11,16,22,13.30
2016,10,11,16,23,13.30
2016,10,11,16,24,13.40
2016,10,11,16,25,13.40
2016,10,11,16,26,13.40
2016,10,11,16,27,13.40
2016,10,11,16,28,13.40
2016,10,11,16,29,13.30
2016,10,11,16,30,13.30
2016,10,11,16,31,13.30
2016,10,11,16,32,13.30
2016,10,11,16,33,13.40
2016,10,11,16,34,13.40
2016,10,11,16,35,13.40
2016,10,11,16,36,13.50
2016,10,11,16,37,13.50
2016,10,11,16,38,13.50
2016,10,11,16,39,13.50
2016,10,11,16,40,13.50
2016,10,11,16,41,13.50
2016,10,11,16,42,13.40
2016,10,11,16,43,13.40
2016,10,11,16,44,13.40
2016,10,11,16,45,13.40
2016,10,11,16,46,13.40
2016,10,11,16,47,13.40
2016,10,11,16,48,13.40
2016,10,11,16,49,13.40
2016,10,11,16,50,13.40
2016,10,11,16,51,13.40
2016,10,11,16,52,13.40
2016,10,11,16,53,13.40
2016,10,11,16,54,13.40
2016,10,11,16,55,13.40
2016,10,11,16,56,13.40
2016,10,11,16,57,13.40
2016,10,11,16,58,13.50
2016,10,11,16,59,13.50
2016,10,11,17,00,13.50
2016,10,11,17,01,13.50
2016,10,11,17,02,13.50
2016,10,11,17,03,13.50
2016,10,11,17,04,13.50
2016,10,11,17,05,13.50
2016,10,11,17,06,13.60
2016,10,11,17,07,13.60
2016,10,11,17,08,13.50
2016,10,11,17,09,13.50
2016,10,11,17,10,13.50
2016,10,11,17,11,13.40
2016,10,11,17,12,13.30
2016,10,11,17,13,13.30
2016,10,11,17,14,13.30
2016,10,11,17,15,13.30
2016,10,11,17,16,13.30
2016,10,11,17,17,13.20
2016,10,11,17,18,13.20
2016,10,11,17,19,13.10
2016,10,11,17,20,13.00
2016,10,11,17,21,12.90
2016,10,11,17,22,12.80
2016,10,11,17,23,12.80
2016,10,11,17,24,12.70
2016,10,11,17,25,12.60
2016,10,11,17,26,12.50
2016,10,11,17,27,12.40
2016,10,11,17,28,12.40
2016,10,11,17,29,12.30
2016,10,11,17,30,12.40
2016,10,11,17,31,12.40
2016,10,11,17,32,12.40
2016,10,11,17,33,12.40
2016,10,11,17,34,12.40
2016,10,11,17,35,12.40
2016,10,11,17,36,12.40
2016,10,11,17,37,12.40
2016,10,11,17,38,12.40
2016,10,11,17,39,12.40
2016,10,11,17,40,12.30
2016,10,11,17,41,12.30
2016,10,11,17,42,12.20
2016,10,11,17,43,12.20
2016,10,11,17,44,12.10
2016,10,11,17,45,12.10
2016,10,11,17,46,12.00
2016,10,11,17,47,12.00